カタログに戻る

CZ-2C R/B

運用中SSO
NORAD 37731·ROCKET BODY·🇨🇳 China

打ち上げ Jul 6, 2011 から Jiuquan Satellite Launch Center

Loading…

次のパス (今後24時間)

TLE

最新Source: Space-Track

元期: Sep 14, 2026, 14:48 UTC

1 37731U 11030B   26257.61722090  .00000805  00000-0  10674-3 0  9999
2 37731  97.8750 211.4397 0053619  95.1577  77.8619 14.81620658818066

AllMySatでCZ-2C R/Bをリアルタイム追跡

Download on the App Store